EN

Hourly Weather Amasra

Today, 20 January, Wednesday

Time Temperature Precipitation Wind Pressure Humidity
00:00 -4°C° 0.4 mm 3 mps 767 mmHg 96%
01:00 -4°C° 0.4 mm 3 mps 767 mmHg 95%
02:00 -4°C° 0 mm 4 mps 767 mmHg 92%
03:00 -4°C° 0.2 mm 4 mps 767 mmHg 92%
04:00 -4°C° 0.2 mm 4 mps 768 mmHg 91%
05:00 -5°C° 0.2 mm 5 mps 768 mmHg 90%
06:00 -6°C° 0.1 mm 5 mps 768 mmHg 88%
07:00 -6°C° 0.1 mm 5 mps 768 mmHg 86%
08:00 -6°C° 0.1 mm 5 mps 768 mmHg 84%
09:00 -4°C° 0 mm 5 mps 768 mmHg 80%
10:00 -2°C° 0 mm 5 mps 769 mmHg 75%
11:00 0°C° 0 mm 5 mps 769 mmHg 71%
12:00 0°C° 0 mm 5 mps 768 mmHg 71%
13:00 +1°C° 0 mm 4 mps 768 mmHg 70%
14:00 +1°C° 0 mm 4 mps 767 mmHg 70%
15:00 0°C° 0 mm 4 mps 768 mmHg 72%
16:00 -1°C° 0 mm 4 mps 768 mmHg 74%
17:00 -2°C° 0 mm 4 mps 769 mmHg 76%
18:00 -2°C° 0 mm 4 mps 769 mmHg 76%
19:00 -2°C° 0 mm 4 mps 769 mmHg 76%
20:00 -2°C° 0 mm 4 mps 769 mmHg 76%
21:00 -2°C° 0 mm 4 mps 769 mmHg 75%
22:00 -2°C° 0 mm 4 mps 769 mmHg 75%
23:00 -1°C° 0 mm 4 mps 769 mmHg 75%

Tomorrow, 21 January, Thursday

Time Temperature Precipitation Wind Pressure Humidity
00:00 -1°C° 0 mm 4 mps 769 mmHg 75%
01:00 -1°C° 0 mm 4 mps 769 mmHg 76%
02:00 -1°C° 0 mm 4 mps 769 mmHg 77%
03:00 -1°C° 0 mm 4 mps 769 mmHg 78%
04:00 -2°C° 0 mm 4 mps 769 mmHg 80%
05:00 -2°C° 0 mm 4 mps 770 mmHg 82%
06:00 -1°C° 0 mm 4 mps 770 mmHg 80%
07:00 -1°C° 0 mm 4 mps 770 mmHg 78%
08:00 0°C° 0 mm 4 mps 770 mmHg 77%
09:00 +1°C° 0 mm 4 mps 770 mmHg 76%
10:00 +4°C° 0 mm 4 mps 770 mmHg 76%
11:00 +5°C° 0 mm 3 mps 770 mmHg 76%
12:00 +7°C° 0 mm 3 mps 770 mmHg 77%
13:00 +7°C° 0 mm 3 mps 769 mmHg 77%
14:00 +8°C° 0 mm 2 mps 769 mmHg 77%
15:00 +7°C° 0 mm 2 mps 769 mmHg 79%
16:00 +5°C° 0 mm 2 mps 770 mmHg 80%
17:00 +3°C° 0 mm 3 mps 770 mmHg 81%
18:00 +3°C° 0 mm 3 mps 770 mmHg 80%
19:00 +2°C° 0 mm 3 mps 770 mmHg 78%
20:00 +2°C° 0 mm 3 mps 770 mmHg 76%
21:00 +2°C° 0 mm 3 mps 770 mmHg 76%
22:00 +2°C° 0 mm 3 mps 770 mmHg 76%
23:00 +1°C° 0 mm 4 mps 770 mmHg 75%

Day after tomorrow, 22 January, Friday

Time Temperature Precipitation Wind Pressure Humidity
00:00 +1°C° 0 mm 4 mps 770 mmHg 75%
01:00 +1°C° 0 mm 4 mps 770 mmHg 74%
02:00 +1°C° 0 mm 4 mps 769 mmHg 74%
03:00 0°C° 0 mm 4 mps 769 mmHg 72%
04:00 0°C° 0 mm 4 mps 769 mmHg 71%
05:00 0°C° 0 mm 4 mps 769 mmHg 70%
06:00 0°C° 0 mm 4 mps 769 mmHg 69%
07:00 0°C° 0 mm 4 mps 769 mmHg 69%
08:00 0°C° 0 mm 4 mps 769 mmHg 68%
09:00 +3°C° 0 mm 4 mps 769 mmHg 70%
10:00 +5°C° 0 mm 4 mps 769 mmHg 71%
11:00 +8°C° 0 mm 3 mps 769 mmHg 73%
12:00 +8°C° 0 mm 3 mps 768 mmHg 73%
13:00 +9°C° 0 mm 3 mps 768 mmHg 74%
14:00 +9°C° 0 mm 3 mps 767 mmHg 75%
15:00 +8°C° 0 mm 3 mps 767 mmHg 74%
16:00 +7°C° 0 mm 3 mps 767 mmHg 74%
17:00 +5°C° 0 mm 3 mps 767 mmHg 73%
18:00 +4°C° 0 mm 4 mps 767 mmHg 72%
19:00 +4°C° 0 mm 4 mps 767 mmHg 72%
20:00 +4°C° 0 mm 4 mps 767 mmHg 71%
21:00 +3°C° 0 mm 5 mps 767 mmHg 72%
22:00 +3°C° 0 mm 5 mps 767 mmHg 72%
23:00 +3°C° 0 mm 5 mps 766 mmHg 72%

23 January, Saturday

Time Temperature Precipitation Wind Pressure Humidity
00:00 +3°C° 0 mm 5 mps 766 mmHg 72%
01:00 +3°C° 0 mm 5 mps 766 mmHg 71%
02:00 +3°C° 0 mm 5 mps 766 mmHg 71%
03:00 +3°C° 0 mm 5 mps 766 mmHg 71%
04:00 +3°C° 0 mm 5 mps 766 mmHg 72%
05:00 +3°C° 0 mm 5 mps 765 mmHg 73%
06:00 +5°C° 0 mm 4 mps 766 mmHg 73%
07:00 +5°C° 0 mm 4 mps 766 mmHg 73%
08:00 +5°C° 0 mm 4 mps 766 mmHg 74%
09:00 +6°C° 0 mm 4 mps 766 mmHg 74%
10:00 +8°C° 0 mm 4 mps 765 mmHg 75%
11:00 +10°C° 0 mm 3 mps 765 mmHg 75%
12:00 +11°C° 0 mm 3 mps 765 mmHg 75%
13:00 +11°C° 0 mm 3 mps 764 mmHg 76%
14:00 +12°C° 0 mm 3 mps 764 mmHg 76%
15:00 +10°C° 0 mm 2 mps 763 mmHg 78%
16:00 +9°C° 0 mm 2 mps 763 mmHg 80%
17:00 +8°C° 0 mm 2 mps 763 mmHg 82%
18:00 +7°C° 0 mm 3 mps 763 mmHg 81%
19:00 +7°C° 0 mm 3 mps 763 mmHg 80%
20:00 +5°C° 0 mm 3 mps 763 mmHg 79%
21:00 +5°C° 0 mm 3 mps 763 mmHg 78%
22:00 +5°C° 0 mm 4 mps 763 mmHg 77%
23:00 +5°C° 0 mm 4 mps 762 mmHg 76%

24 January, Sunday

Time Temperature Precipitation Wind Pressure Humidity
00:00 +5°C° 0 mm 4 mps 762 mmHg 75%
01:00 +5°C° 0 mm 4 mps 762 mmHg 74%
02:00 +5°C° 0 mm 4 mps 762 mmHg 74%
03:00 +5°C° 0 mm 4 mps 761 mmHg 74%
04:00 +5°C° 0 mm 4 mps 761 mmHg 73%
05:00 +5°C° 0 mm 3 mps 761 mmHg 73%
06:00 +5°C° 0 mm 4 mps 761 mmHg 73%
07:00 +5°C° 0 mm 4 mps 761 mmHg 73%
08:00 +5°C° 0 mm 4 mps 761 mmHg 72%
09:00 +7°C° 0 mm 4 mps 761 mmHg 70%
10:00 +10°C° 0 mm 3 mps 761 mmHg 68%
11:00 +12°C° 0 mm 3 mps 761 mmHg 67%
12:00 +12°C° 0 mm 3 mps 761 mmHg 66%
13:00 +13°C° 0 mm 3 mps 760 mmHg 65%
14:00 +13°C° 0 mm 3 mps 760 mmHg 64%
15:00 +12°C° 0 mm 3 mps 760 mmHg 68%
16:00 +11°C° 0 mm 4 mps 760 mmHg 72%
17:00 +8°C° 0 mm 4 mps 760 mmHg 76%
18:00 +8°C° 0 mm 4 mps 760 mmHg 75%
19:00 +8°C° 0 mm 4 mps 761 mmHg 74%
20:00 +7°C° 0 mm 5 mps 761 mmHg 74%
21:00 +7°C° 0 mm 5 mps 761 mmHg 74%
22:00 +7°C° 0 mm 5 mps 761 mmHg 74%
23:00 +7°C° 0 mm 5 mps 761 mmHg 74%

25 January, Monday

Time Temperature Precipitation Wind Pressure Humidity
00:00 +7°C° 0 mm 5 mps 761 mmHg 74%
01:00 +6°C° 0 mm 5 mps 760 mmHg 74%
02:00 +6°C° 0 mm 5 mps 760 mmHg 74%
03:00 +6°C° 0 mm 5 mps 760 mmHg 74%
04:00 +6°C° 0 mm 5 mps 759 mmHg 74%
05:00 +6°C° 0 mm 5 mps 759 mmHg 74%
06:00 +6°C° 0 mm 5 mps 759 mmHg 74%
07:00 +7°C° 0 mm 5 mps 758 mmHg 73%
08:00 +7°C° 0 mm 5 mps 758 mmHg 72%
09:00 +8°C° 0 mm 5 mps 758 mmHg 69%
10:00 +10°C° 0 mm 5 mps 757 mmHg 65%
11:00 +12°C° 0 mm 5 mps 757 mmHg 62%
12:00 +12°C° 0 mm 5 mps 756 mmHg 61%
13:00 +12°C° 0 mm 5 mps 756 mmHg 60%
14:00 +13°C° 0 mm 5 mps 755 mmHg 60%
15:00 +12°C° 0 mm 5 mps 755 mmHg 61%
16:00 +10°C° 0 mm 6 mps 755 mmHg 63%
17:00 +9°C° 0 mm 6 mps 754 mmHg 65%
18:00 +9°C° 0.1 mm 6 mps 755 mmHg 68%
19:00 +9°C° 0.1 mm 7 mps 755 mmHg 71%
20:00 +8°C° 0.1 mm 7 mps 755 mmHg 75%
21:00 +8°C° 0.7 mm 7 mps 756 mmHg 80%
22:00 +8°C° 0.7 mm 6 mps 756 mmHg 85%
23:00 +8°C° 0.7 mm 6 mps 757 mmHg 90%
Show more